EHI
0 0 0 0 0 0 0 0 0 0 0 0 0 0 0 2 5 5 4 6 9 11 13 15 17 18 19 18 16 16 16 13 10 6 4 5 6 6 6 5 4 4 4 3
0 0 0 0 0 0 0 0 0 0 0 0 0 0 1 3 5 6 5 7 10 12 14 17 19 22 22 19 16 15 12 10 9 7 5 5 5 6 6 6 6 5 5 5
0 0 0 0 0 0 0 0 0 0 1 1 1 1 2 4 6 7 8 9 11 14 16 19 21 24 24 19 14 12 10 8 9 9 6 5 5 5 6 6 7 7 7 7
0 0 0 0 0 0 0 0 0 1 3 3 2 3 4 4 6 8 9 9 11 15 18 20 22 23 22 17 12 10 9 8 9 9 7 5 5 5 5 6 7 8 8 9
0 0 0 0 0 0 0 0 0 2 4 5 4 4 4 5 7 9 9 9 10 13 18 22 22 21 19 15 11 9 9 9 10 11 10 8 6 4 5 7 8 7 7 7
0 0 0 0 0 0 0 0 0 1 3 4 4 4 4 6 9 10 9 9 9 13 18 20 18 16 16 13 10 9 9 11 12 14 14 12 9 8 8 9 8 5 4 5
0 0 0 1 1 0 0 1 1 0 1 3 4 5 7 11 13 11 9 8 10 13 16 16 14 13 13 13 12 12 11 12 13 15 15 15 15 15 14 11 7 4 4 5
0 0 1 2 2 1 1 3 3 2 2 4 7 9 11 14 15 12 9 8 10 13 14 13 12 13 13 14 14 13 13 13 13 14 14 15 18 20 19 15 10 8 8 8
1 2 4 4 4 3 4 5 6 5 4 8 11 12 13 13 13 12 9 9 9 10 10 10 11 13 14 14 14 14 14 14 14 14 14 17 19 21 21 20 17 15 15 14
5 6 7 8 7 6 6 6 7 7 8 10 11 11 12 11 10 9 7 7 8 9 8 8 10 12 14 14 14 15 15 15 16 17 18 20 21 22 23 24 23 22 20 18
7 7 8 8 8 7 6 6 7 8 8 7 7 7 9 10 8 6 4 5 7 9 8 8 10 12 13 14 16 17 17 17 17 19 22 23 23 22 22 23 22 20 19 18
6 6 5 5 5 5 5 5 7 7 7 5 5 5 5 6 5 4 3 3 5 6 7 8 9 11 12 13 15 17 17 16 17 21 24 25 24 22 20 18 14 11 11 12
4 4 4 3 3 3 4 5 6 6 5 5 5 4 3 3 3 3 3 3 3 3 4 6 8 9 10 11 12 14 14 13 16 21 25 25 24 24 22 18 11 6 4 4
4 4 3 3 3 4 4 5 5 5 4 4 4 3 2 2 3 3 3 3 3 2 3 4 6 7 8 8 9 11 13 13 16 22 24 24 24 24 25 21 15 10 6 3
4 3 3 3 4 4 4 4 3 2 2 2 2 2 2 2 3 3 3 3 3 3 3 4 5 6 6 7 11 14 15 17 18 21 22 22 23 24 24 22 17 14 11 8
5 4 3 3 3 4 3 3 1 0 1 1 3 5 3 2 3 4 3 3 3 3 3 4 5 5 6 10 14 17 17 17 17 18 19 20 20 21 20 18 15 13 11 10
5 4 3 2 2 3 3 2 0 0 1 3 5 6 4 3 3 3 4 5 5 5 5 5 5 7 8 11 14 15 15 14 13 14 16 16 15 14 14 13 12 12 10 9
3 3 1 0 1 2 2 1 0 0 1 4 6 6 5 4 3 4 6 8 8 8 8 7 7 9 10 11 11 12 11 11 11 11 12 11 9 8 8 9 10 10 9 8
1 1 0 0 0 1 1 1 0 0 1 3 4 4 5 5 6 7 9 10 11 11 11 10 10 11 11 10 9 9 9 8 8 8 8 7 5 5 5 6 7 7 7 6
0 0 0 1 1 0 0 0 0 0 0 1 2 2 3 5 7 10 12 12 11 11 11 11 11 11 10 7 6 6 6 5 4 4 4 3 3 3 3 4 4 4 4 4
0 0 0 1 1 0 0 0 0 0 0 1 1 1 1 3 6 8 10 10 9 9 8 8 8 7 6 4 2 2 2 1 1 1 1 1 1 1 1 2 2 3 3 3
0 0 0 1 1 0 0 0 0 0 0 0 0 0 1 1 3 4 5 5 4 4 4 5 4 3 2 1 0 0 0 0 0 0 0 0 0 0 0 0 1 1 2 1
0 0 0 0 0 0 0 0 0 0 0 0 0 1 1 1 1 2 1 1 1 1 2 2 2 1 0 0 0 0 0 0 0 0 0 0 0 0 0 0 0 0 0 0
0 0 0 0 0 0 0 0 0 0 0 1 1 1 1 0 0 0 0 0 0 0 1 1 1 0 0 0 0 0 0 0 0 0 0 0 0 0 0 0 0 0 0 0
0 0 0 0 0 0 0 0 0 0 0 1 1 1 0 0 1 1 0 0 0 0 0 0 0 0 0 0 0 0 0 0 0 0 0 0 0 0 0 0 0 0 0 0
0 0 0 0 0 0 0 0 0 0 0 1 1 0 0 1 2 1 0 0 0 0 0 0 0 0 0 0 0 0 0 0 0 0 0 0 0 0 0 0 0 0 0 0
0 0 0 0 0 0 0 0 0 0 0 0 0 0 1 2 2 1 0 0 0 0 0 0 0 0 0 0 0 0 0 0 0 0 0 0 0 0 0 0 0 0 0 0
Wind_Speed
4 4 3 3 5 6 6 8 8 9 9 11 7 6 6 5 3 4 5 6 7 8 7 7 8 8 8 7 7 7 7 7 7 5 5 4 4 4 4 3 4 3 3 2
1 2 3 3 5 6 6 6 7 5 10 8 4 2 3 4 5 5 6 7 7 7 7 8 9 9 8 8 7 7 7 7 6 6 5 5 5 4 4 4 3 3 3 3
2 1 1 5 7 8 6 6 7 9 10 3 3 5 7 7 6 7 7 7 7 8 8 8 9 9 9 9 8 7 7 7 6 6 6 6 5 5 5 5 4 4 4 4
2 2 6 9 4 5 5 5 5 5 5 5 6 5 4 4 7 7 7 7 8 7 7 7 7 7 7 7 8 8 8 7 7 7 7 6 5 6 5 4 4 4 3 3
4 3 5 7 3 4 4 5 4 4 4 2 1 2 3 3 4 5 6 6 6 6 6 7 7 8 8 8 7 8 8 8 8 8 7 6 6 6 5 4 4 4 3 4
4 4 7 7 3 1 2 4 3 3 3 2 2 1 4 3 2 2 2 3 4 4 4 6 7 8 8 8 8 8 8 8 7 7 7 8 7 6 4 4 5 4 4 4
4 4 7 6 4 1 4 7 2 2 2 2 3 4 3 3 2 1 1 2 4 5 5 5 6 7 8 8 9 9 7 6 6 7 7 7 6 4 4 4 4 4 4 4
4 4 8 3 1 4 6 3 1 1 2 2 2 1 2 2 2 1 1 2 4 5 4 3 5 7 7 7 7 6 6 6 6 6 6 5 5 4 4 5 5 4 3 3
7 7 5 2 3 3 2 1 1 1 3 2 1 0 2 2 2 2 1 2 2 4 4 3 4 6 6 6 4 5 5 5 5 5 5 5 5 5 4 4 4 4 3 4
2 5 4 4 3 2 1 1 1 1 2 1 2 1 1 1 2 3 2 2 2 4 3 3 3 4 5 3 4 5 5 5 5 5 4 4 4 4 4 5 5 4 4 4
3 5 4 4 2 2 2 2 2 1 0 2 3 1 1 1 1 1 1 2 3 3 3 2 2 3 3 3 5 5 5 5 5 5 5 4 4 4 5 5 6 6 5 5
6 6 4 4 4 2 1 1 0 2 2 1 1 2 1 0 1 1 1 2 3 2 2 1 2 2 1 3 5 5 4 4 4 4 3 4 4 2 3 4 5 7 7 6
6 4 5 5 3 3 1 1 1 1 2 1 1 2 2 1 1 1 1 2 2 2 2 2 2 1 1 2 4 5 5 4 3 4 4 4 4 4 3 2 3 5 6 7
4 2 2 3 3 2 1 1 1 1 1 1 2 1 2 1 1 1 1 1 1 1 1 1 1 1 1 2 3 4 4 4 3 3 4 4 4 4 4 3 3 2 3 5
3 2 4 2 1 1 1 2 2 1 1 1 1 2 2 2 1 2 2 1 1 1 1 1 1 1 0 2 3 3 3 2 3 3 3 3 3 3 3 3 3 2 2 2
2 1 1 2 2 2 2 3 3 2 1 1 1 1 2 2 1 1 1 0 1 1 1 0 1 1 0 2 2 2 2 3 3 3 2 2 2 2 3 3 3 3 3 3
2 3 3 3 3 3 3 3 3 3 2 2 2 2 2 1 0 1 1 0 1 2 1 1 2 1 1 2 2 2 2 3 3 3 3 3 3 3 3 3 3 4 4 4
5 6 5 5 5 4 3 3 3 3 2 2 1 1 2 2 2 2 1 0 1 2 2 1 1 1 1 2 2 2 2 2 2 3 3 3 3 3 3 3 4 4 3 3
5 5 4 4 5 5 4 4 3 3 3 3 2 1 1 1 2 1 0 1 0 1 2 1 1 1 1 1 2 2 2 2 2 2 2 3 3 2 2 3 3 3 4 3
4 4 4 3 3 4 4 4 4 3 2 2 2 1 1 1 1 1 1 1 2 2 2 1 1 1 1 1 1 2 2 2 2 2 2 2 3 2 3 3 3 4 4 4
3 3 3 3 3 3 4 4 4 3 2 2 2 2 2 1 1 1 1 0 2 1 1 1 1 1 1 1 1 1 2 2 2 3 3 2 2 2 3 3 3 3 3 3
2 3 3 3 3 3 3 3 3 3 2 2 2 2 2 1 1 0 1 2 2 2 1 1 1 1 2 1 1 2 2 2 2 2 2 2 2 3 3 3 3 3 3 2
2 2 3 4 4 3 2 2 2 3 3 3 3 3 3 2 2 2 2 2 1 1 1 1 1 1 1 1 1 2 2 2 2 2 2 2 3 3 3 3 2 2 2 2
1 2 2 2 3 3 2 2 2 2 2 2 2 3 3 2 1 1 2 1 1 1 1 1 1 1 2 1 1 1 1 1 2 2 2 2 2 2 2 2 2 2 2 2
2 2 2 3 3 2 2 2 1 2 2 1 1 1 1 2 2 1 1 1 0 0 0 1 1 1 1 1 1 1 1 1 1 1 2 2 2 2 2 1 1 1 1 1
2 2 2 3 3 2 2 2 1 1 1 1 0 0 0 0 1 1 1 1 1 0 0 1 1 1 1 1 1 1 1 1 1 1 1 1 1 1 1 1 1 1 1 1
1 1 1 1 1 2 2 2 2 2 2 2 1 0 0 1 1 1 1 1 0 0 0 1 1 1 1 1 1 1 1 1 1 1 1 0 0 0 1 1 0 0 1 1
Wind_Direction
212 212 186 209 210 197 193 187 191 226 235 254 251 238 239 234 213 186 182 184 184 186 188 185 183 182 181 183 181 179 178 186 196 197 192 191 193 192 188 186 196 197 195 205
235 212 196 236 229 216 223 206 216 232 254 254 256 230 232 227 203 198 196 193 191 190 187 189 188 186 182 182 181 175 182 193 194 185 186 195 200 193 187 192 195 189 198 205
219 264 66 254 228 211 215 211 195 219 240 258 257 232 221 217 207 206 200 195 192 195 195 194 193 186 185 183 173 173 185 192 190 186 190 198 197 190 198 201 194 196 207 208
138 107 219 241 236 205 208 238 226 235 249 238 244 258 251 223 205 206 198 196 198 199 200 195 184 179 174 171 172 178 187 195 191 186 194 193 189 199 206 198 194 202 213 215
136 179 260 282 249 187 191 260 239 233 257 273 304 15 314 263 209 204 207 205 203 199 194 186 182 174 164 170 177 184 194 199 197 191 191 187 195 205 203 192 196 198 202 210
138 161 221 243 265 244 132 264 259 219 233 220 104 141 267 291 284 250 222 202 192 177 166 176 183 167 164 176 183 197 202 202 195 189 190 193 199 203 195 190 199 198 206 213
162 199 251 257 284 106 174 237 257 231 225 187 186 214 264 306 299 238 192 184 163 154 167 183 171 162 173 183 199 206 199 192 189 189 194 195 192 190 182 186 194 205 214 219
156 185 246 279 105 180 219 254 227 246 253 189 205 282 351 1 5 31 86 120 145 146 158 160 160 166 176 194 202 190 180 181 190 193 197 191 182 185 183 184 194 205 214 233
187 211 241 257 222 243 208 213 239 230 270 195 147 33 4 14 23 29 67 102 126 143 144 143 158 166 177 200 181 164 170 186 191 189 191 184 180 184 186 187 197 207 212 230
241 266 270 277 275 270 230 200 258 241 231 178 155 154 46 25 32 40 44 88 114 123 139 160 170 175 192 184 152 156 176 191 185 181 186 182 185 187 194 198 201 205 212 226
251 271 301 302 287 288 334 10 21 48 129 158 142 157 142 98 72 83 80 87 99 122 150 176 174 189 196 164 155 167 183 187 183 183 182 188 196 199 205 213 209 206 212 214
222 231 219 249 273 280 305 342 92 90 38 9 141 146 110 97 83 93 90 87 91 109 153 181 167 188 203 175 169 171 183 189 186 183 184 188 193 212 229 225 224 219 221 215
230 236 239 250 273 266 232 252 209 130 141 161 134 137 134 142 137 110 97 94 115 153 175 172 140 143 216 188 173 175 189 195 190 186 190 195 196 199 223 257 238 228 228 229
230 225 267 259 247 251 216 155 87 92 102 136 141 133 132 118 107 110 163 196 170 150 147 139 132 221 234 175 171 179 187 194 191 196 195 199 203 206 208 213 235 258 247 235
254 226 216 227 249 260 143 123 112 103 92 70 111 134 144 141 186 245 267 265 114 98 71 77 95 293 263 144 158 169 172 182 187 190 195 202 204 209 213 213 226 246 269 268
243 215 185 186 212 203 165 158 156 169 162 137 173 186 177 178 185 244 275 179 140 185 233 211 257 277 200 138 154 160 166 180 185 180 181 196 201 206 218 218 224 234 243 247
204 231 225 194 189 186 188 181 169 169 176 176 194 193 160 146 130 287 280 213 195 226 231 222 239 241 176 145 161 168 174 188 187 179 189 200 206 213 221 224 228 233 241 233
219 225 225 204 186 178 185 182 169 165 172 188 165 140 142 162 212 247 250 8 36 2 330 286 255 231 191 175 165 171 185 193 196 199 201 205 216 220 213 225 238 243 253 241
225 228 224 209 198 184 186 190 185 174 167 160 149 143 165 203 238 241 176 100 88 298 293 276 242 213 206 195 172 174 183 191 199 202 204 204 212 225 224 230 241 249 251 251
216 212 205 205 191 181 185 185 173 168 170 156 146 130 203 246 207 168 128 168 246 250 258 243 212 227 223 207 183 177 183 190 197 202 210 215 221 231 236 242 247 251 253 252
198 194 191 192 185 181 183 175 162 166 170 160 164 186 216 229 192 161 138 278 293 289 279 254 229 234 229 207 195 194 196 202 205 206 208 216 225 236 244 248 251 254 254 255
213 198 193 188 178 180 185 168 160 165 167 174 193 195 179 187 187 178 218 235 258 266 275 291 288 263 245 235 219 217 218 219 221 224 220 219 224 234 243 248 249 251 255 257
212 201 189 183 179 172 149 149 166 171 178 194 200 192 192 205 203 193 259 267 248 242 267 270 271 287 291 262 229 229 229 232 233 238 239 237 241 244 245 248 252 256 259 267
184 172 171 160 137 133 156 196 185 181 187 207 209 204 194 190 230 238 226 233 242 248 272 274 271 303 315 302 253 245 237 235 238 241 245 244 241 242 245 246 249 257 263 276
168 151 143 145 152 178 200 206 179 174 170 182 223 220 203 194 199 226 224 200 203 103 5 1 16 3 347 331 296 266 253 251 259 256 244 243 251 254 252 248 252 262 272 275
181 175 183 191 195 193 184 170 173 185 167 158 335 344 135 147 144 148 128 105 101 111 55 7 3 3 347 318 306 307 301 304 301 276 261 246 236 231 239 252 258 262 272 288
171 166 158 157 185 181 177 174 178 196 194 176 185 254 187 125 120 120 113 107 114 79 29 4 340 326 328 337 346 346 341 332 333 334 345 345 248 211 210 199 248 305 345 353